Home   Weather   Guatemala City   Past weeks

Flag for Guatemala Past Weather in Guatemala City, Guatemala — Yesterday and Last 2 Weeks

Now
63 °F

Passing clouds.


Feels Like: 63 °F
Forecast: 55 / 76 °F
Wind: 2 mph from North

Location: Guatemala Aeropuertola Aurora

Current Time: Jan 16, 2017 at 9:08:18 pm

Latest Report: Jan 16, 2017 at 8:00 pm


Visibility: 5 mi

Pressure: 30.27 "Hg (25.27 "Hg at 1533m altitude)

Humidity: 83%

Dew Point: 57 °F

Location of Guatemala CityLocation

Past Weather in Guatemala City — Graph

°F

Guatemala City Temperature Yesterday

Maximum temperature yesterday: 73 °F (at 1:00 pm)
Minimum temperature yesterday: 54 °F (at 4:00 am)
Average temperature yesterday: 62 °F

High & Low Weather Summary for the Past Weeks

 TemperatureHumidityPressure
High81 °F (Jan 4, 2:00 pm)94% (Jan 2, 12:00 am)30.51 "Hg (Jan 2, 12:00 am)
Low52 °F (Jan 9, 3:00 am)34% (Jan 2, 1:00 pm)30.12 "Hg (Jan 5, 4:00 pm)
Average63 °F72%30.31 "Hg
* Reported Jan 1 8:00 pm — Jan 16 8:00 pm, Guatemala City, Weather by CustomWeather, © 2017

Note: Actual official high and low records may vary slightly from our data, if they occured in-between our weather recording intervals... More about our weather records

Advertising

Guatemala City Weather History for the Previous 24 Hours

Scroll right to see more
 ConditionsComfort  
Time TempWeatherWind HumidityBarometerVisibility
8:00 pm
Mon, Jan 16
63 °FPassing clouds.2 mph83%30.27 "Hg5 mi
7:00 pm64 °FPassing clouds.5 mph83%30.24 "Hg5 mi
6:00 pm68 °FPassing clouds.9 mph64%30.21 "Hg5 mi
5:00 pm72 °FScattered clouds.5 mph57%30.21 "Hg5 mi
4:00 pm75 °FScattered clouds.7 mph47%30.18 "HgN/A
3:00 pm75 °FPassing clouds.9 mph47%30.18 "HgN/A
2:00 pm75 °FPassing clouds.12 mph47%30.21 "HgN/A
1:00 pm73 °FPassing clouds.9 mph47%30.24 "HgN/A
12:00 pm72 °FPassing clouds.9 mph53%30.27 "HgN/A
11:00 am68 °FPassing clouds.9 mph60%30.33 "HgN/A
10:00 am64 °FMild.12 mph68%30.33 "HgN/A
9:00 am59 °FPartly sunny.12 mph82%30.33 "Hg5 mi
8:00 am55 °FPartly sunny.14 mph94%30.30 "Hg5 mi
7:00 am54 °FFog.9 mph94%30.27 "Hg0 mi
6:00 am54 °FFog.9 mph94%30.27 "Hg2 mi
5:00 am55 °FPassing clouds.9 mph88%30.24 "HgN/A
4:00 am55 °FClear.9 mph88%30.24 "Hg10 mi
3:00 am55 °FClear.7 mph94%30.24 "Hg10 mi
2:00 am55 °FClear.14 mph94%30.24 "Hg10 mi
1:00 am55 °FClear.14 mph94%30.27 "Hg10 mi
12:00 am57 °FClear.12 mph82%30.27 "Hg10 mi
11:00 pm
Sun, Jan 15
57 °FClear.12 mph82%30.30 "Hg10 mi
10:00 pm59 °FPassing clouds.14 mph82%30.30 "HgN/A
9:00 pm61 °FPassing clouds.18 mph77%30.30 "HgN/A
Weather by CustomWeather, © 2017

See weather overviewHow to use our weather pages